EW9290 Weather Reports


time (UTC)temp
C
wind
direction
speed
KPH
gust
KPH
rain 1hr
cm
rain 24hr
cm
rain mn
cm
humidity
%
barometer
mb
20260510061742 11 359 8.0 12.9 0.00 0.00 0.00 99 1007.0
20260510061240 11 359 1.6 3.2 0.00 0.00 0.00 99 1006.8
20260510060735 11 348 4.8 4.8 0.00 0.00 0.00 99 1006.8
20260510060233 11 358 1.6 3.2 0.00 0.00 0.00 99 1007.0
20260510055729 11 23 0.0 0.0 0.00 0.00 0.00 99 1006.6
20260510055227 11 23 0.0 0.0 0.00 0.00 0.00 99 1006.6
20260510054722 11 23 0.0 0.0 0.00 0.00 0.00 99 1006.5
20260510054218 11 23 0.0 0.0 0.00 0.00 0.00 99 1006.5
20260510053717 11 23 0.0 0.0 0.00 0.00 0.00 99 1006.4
20260510053214 11 22 0.0 0.0 0.00 0.00 0.00 99 1006.6
20260510052709 11 23 0.0 0.0 0.00 0.00 0.00 99 1006.5
20260510052206 11 21 3.2 3.2 0.00 0.00 0.00 99 1006.4
20260510051702 11 172 0.0 1.6 0.00 0.00 0.00 99 1006.1
20260510051159 11 14 11.3 14.5 0.00 0.00 0.00 99 1006.5
20260510050656 11 177 4.8 4.8 0.00 0.00 0.00 99 1005.7
20260510050153 11 346 1.6 8.0 0.00 0.00 0.00 99 1006.3
20260510045649 11 189 0.0 0.0 0.00 0.00 0.00 99 1005.4
20260510045147 11 168 0.0 0.0 0.00 0.00 0.00 99 1005.4
20260510044642 11 164 1.6 3.2 0.00 0.00 0.00 99 1005.4
20260510044140 11 154 0.0 0.0 0.00 0.00 0.00 99 1005.1
20260510043636 11 161 0.0 0.0 0.00 0.00 0.00 99 1005.2
20260510043132 11 171 0.0 0.0 0.00 0.00 0.00 99 1005.2
20260510042630 11 180 1.6 3.2 0.00 0.00 0.00 98 1005.1
20260510042126 11 184 1.6 1.6 0.00 0.00 0.00 98 1005.3
20260510041623 11 187 3.2 3.2 0.00 0.00 0.00 98 1005.4
20260510041120 11 182 1.6 1.6 0.00 0.00 0.00 98 1005.3
20260510040618 11 184 1.6 1.6 0.00 0.00 0.00 97 1005.1
20260510040114 11 195 1.6 1.6 0.00 0.00 0.00 97 1005.5
20260510035609 12 195 1.6 1.6 0.00 1.60 1.60 97 1005.1
20260510035104 12 221 3.2 3.2 0.00 1.60 1.60 97 1005.3
20260510034602 12 209 1.6 1.6 0.00 1.60 1.60 96 1005.2
20260510034059 12 210 4.8 4.8 0.00 1.60 1.60 96 1005.2
20260510033555 12 213 1.6 3.2 0.36 1.60 1.60 96 1005.0
20260510033053 12 205 3.2 3.2 1.55 1.60 1.60 96 1005.1
20260510032549 12 231 3.2 3.2 1.32 1.55 1.55 96 1005.4
20260510032044 12 210 8.0 9.7 0.13 1.35 1.35 96 1005.2
20260510031539 12 218 1.6 3.2 0.48 1.32 1.32 96 1005.1
20260510031035 12 228 3.2 3.2 0.79 1.32 1.32 98 1005.1
20260510030531 12 232 6.4 8.0 0.30 1.24 1.24 99 1005.9
20260510030029 11 212 0.0 0.0 0.00 1.19 1.19 99 1005.3
20260510025525 11 199 0.0 0.0 0.00 1.19 1.19 99 1005.2
20260510025023 11 192 1.6 1.6 0.00 1.19 1.19 99 1005.4
20260510024520 11 210 3.2 3.2 0.00 1.19 1.19 99 1005.2
20260510024015 11 212 3.2 3.2 0.00 1.19 1.19 99 1005.3
20260510023511 12 239 0.0 0.0 0.00 1.19 1.19 99 1005.3
20260510023009 12 262 0.0 0.0 0.00 1.19 1.19 99 1005.0
20260510022508 12 272 0.0 0.0 0.18 1.19 1.19 99 1005.1
20260510022008 12 302 0.0 0.0 0.48 1.19 1.19 99 1005.3
20260510021505 12 333 1.6 1.6 0.61 1.17 1.17 99 1005.6
20260510021002 12 286 3.2 3.2 0.30 1.12 1.12 99 1006.0
20260510020456 11 253 0.0 0.0 0.00 1.07 1.07 99 1005.1
20260510015952 11 169 1.6 1.6 0.00 1.07 1.07 99 1004.7
20260510015448 11 173 1.6 3.2 0.00 1.07 1.07 99 1004.5
20260510014943 11 186 0.0 0.0 0.00 1.07 1.07 99 1004.6
20260510014436 11 199 0.0 0.0 0.00 1.07 1.07 99 1004.8
20260510013932 11 207 0.0 0.0 0.00 1.07 1.07 99 1004.5
20260510013427 11 208 0.0 0.0 0.00 1.07 1.07 99 1004.4
20260510012923 11 208 0.0 0.0 0.00 1.07 1.07 99 1004.4
20260510012418 11 208 0.0 0.0 0.00 1.07 1.07 98 1004.2
20260510011913 11 208 0.0 0.0 0.00 1.07 1.07 98 1004.3
20260510011408 11 208 0.0 0.0 0.00 1.07 1.07 98 1004.2
20260510010904 11 209 0.0 1.6 0.00 1.07 1.07 98 1004.2
20260510010402 11 222 1.6 1.6 0.00 1.07 1.07 98 1004.0
20260510005858 12 222 0.0 0.0 0.00 1.07 1.07 97 1004.2
20260510005354 12 222 0.0 0.0 0.00 1.07 1.07 97 1004.1
20260510004852 12 222 0.0 0.0 0.00 1.07 1.07 97 1004.1
20260510004349 12 222 0.0 0.0 0.00 1.07 1.07 97 1004.1
20260510003847 12 245 1.6 1.6 0.00 1.07 1.07 96 1004.0
20260510003344 12 250 0.0 0.0 0.00 1.07 1.07 96 1004.0
20260510002842 12 242 0.0 1.6 0.00 1.07 1.07 96 1004.2
20260510002340 12 262 1.6 1.6 0.00 1.07 1.07 96 1003.9
20260510001837 12 242 3.2 8.0 0.00 1.07 1.07 95 1003.8
20260510001335 12 236 1.6 3.2 0.00 1.07 1.07 95 1004.0
20260510000831 12 226 3.2 4.8 0.00 1.07 1.07 95 1004.0
20260510000328 12 254 3.2 3.2 0.00 1.07 1.07 95 1004.2
20260509235825 12 240 1.6 1.6 0.00 1.07 1.07 95 1003.9
20260509235321 12 228 4.8 8.0 0.00 1.07 1.07 95 1004.2
20260509234817 12 244 3.2 3.2 0.13 1.07 1.07 96 1004.2
20260509234314 12 254 4.8 4.8 0.30 1.07 1.07 96 1004.2
20260509233812 12 268 1.6 3.2 0.30 1.04 1.04 96 1003.9
20260509233309 12 244 1.6 3.2 0.48 1.02 1.02 96 1004.3
20260509232805 12 236 3.2 3.2 0.66 0.99 0.99 96 1004.5
20260509232306 12 271 1.6 1.6 0.61 0.94 0.94 95 1004.6
20260509231759 12 297 9.7 14.5 0.71 0.89 0.89 95 1004.1
20260509231256 12 324 11.3 14.5 0.71 0.84 0.84 94 1004.1
20260509230754 13 342 14.5 17.7 0.97 0.76 0.76 92 1003.6
20260509230251 14 284 8.0 11.3 0.97 0.71 0.71 89 1003.9
20260509225745 15 316 8.0 11.3 0.61 0.61 0.61 82 1003.4
20260509225242 17 299 9.7 14.5 0.30 0.56 0.56 72 1002.7
20260509224738 20 236 8.0 12.9 0.00 0.51 0.51 56 1002.1
20260509224235 20 211 4.8 8.0 0.00 0.51 0.51 56 1001.7
20260509223732 20 194 8.0 9.7 0.00 0.51 0.51 56 1001.8
20260509223229 20 235 6.4 8.0 0.00 0.51 0.51 55 1001.5
20260509222726 20 233 16.1 17.7 0.00 0.51 0.51 54 1001.3
20260509222221 20 204 14.5 22.5 0.00 0.51 0.51 53 1001.3
20260509221717 20 246 20.9 25.7 0.00 0.51 0.51 53 1001.6
20260509221213 20 243 4.8 4.8 0.00 0.51 0.51 55 1001.6
20260509220709 20 224 9.7 12.9 0.00 0.51 0.51 55 1001.6
20260509220206 20 233 11.3 17.7 0.00 0.51 0.51 55 1001.4
20260509215701 20 215 11.3 12.9 0.00 0.51 0.51 56 1001.6
20260509215158 20 250 11.3 16.1 0.00 0.51 0.51 56 1001.6
20260509214656 20 230 9.7 12.9 0.00 0.51 0.51 56 1001.4
20260509214152 20 206 12.9 14.5 0.00 0.51 0.51 53 1001.4
20260509213649 20 219 6.4 9.7 0.00 0.51 0.51 55 1001.6
20260509213145 20 211 8.0 11.3 0.00 0.51 0.51 56 1001.4
20260509212643 20 224 11.3 12.9 0.00 0.51 0.51 56 1001.3
20260509212139 20 275 12.9 17.7 0.00 0.51 0.51 57 1001.1
20260509211635 20 207 16.1 22.5 0.00 0.51 0.51 57 1001.3
20260509211132 20 208 12.9 14.5 0.00 0.51 0.51 57 1001.5
20260509210629 20 215 12.9 17.7 0.00 0.51 0.51 57 1001.6
20260509210126 20 217 12.9 14.5 0.00 0.51 0.51 58 1001.6
20260509205621 20 194 12.9 14.5 0.00 0.51 0.51 58 1001.6
20260509205115 20 206 11.3 14.5 0.00 0.51 0.51 56 1001.8
20260509204612 20 228 8.0 11.3 0.00 0.51 0.51 58 1001.9
20260509204108 20 238 17.7 20.9 0.00 0.51 0.51 58 1001.9
20260509203604 20 196 12.9 14.5 0.00 0.51 0.51 58 1002.1
20260509203103 20 267 11.3 16.1 0.00 0.51 0.51 58 1002.3
20260509202603 20 228 8.0 9.7 0.00 0.51 0.51 58 1002.2
20260509202058 20 226 14.5 20.9 0.00 0.51 0.51 59 1002.1
20260509201553 20 201 16.1 20.9 0.00 0.51 0.51 59 1002.5
20260509201052 20 227 16.1 22.5 0.00 0.51 0.51 60 1002.4
20260509200550 20 162 9.7 12.9 0.00 0.51 0.51 61 1002.4
20260509200048 20 216 12.9 14.5 0.00 0.51 0.51 60 1002.6
20260509195543 20 176 12.9 16.1 0.00 0.51 0.51 59 1002.7
20260509195037 20 241 12.9 17.7 0.00 0.51 0.51 61 1002.4
20260509194532 20 222 9.7 11.3 0.00 0.51 0.51 61 1002.5
20260509194031 20 195 17.7 27.4 0.00 0.51 0.51 58 1003.0
20260509193531 20 240 9.7 14.5 0.00 0.51 0.51 59 1003.1
20260509193027 19 235 11.3 14.5 0.00 0.51 0.51 60 1003.0
20260509192524 20 248 12.9 14.5 0.00 0.51 0.51 60 1003.0
20260509192019 19 199 4.8 8.0 0.00 0.51 0.51 63 1003.2
20260509191514 19 208 12.9 17.7 0.00 0.51 0.51 62 1003.3
20260509191010 19 193 11.3 14.5 0.00 0.51 0.51 62 1003.3
20260509190507 19 203 8.0 11.3 0.00 0.51 0.51 62 1003.4
20260509190006 18 179 12.9 22.5 0.00 0.51 0.51 62 1003.6
20260509185502 18 224 12.9 16.1 0.00 0.51 0.51 62 1003.7
20260509184958 18 237 6.4 8.0 0.00 0.51 0.51 65 1003.7
20260509184457 18 213 9.7 12.9 0.00 0.51 0.51 64 1003.8
20260509183952 18 209 14.5 20.9 0.00 0.51 0.51 64 1003.7
20260509183447 18 233 11.3 14.5 0.00 0.51 0.51 64 1003.7
20260509182944 18 238 12.9 17.7 0.00 0.51 0.51 64 1003.8
20260509182440 18 212 8.0 11.3 0.00 0.51 0.51 65 1003.7
20260509181937 18 278 11.3 12.9 0.00 0.51 0.51 64 1003.7
20260509181435 18 197 11.3 14.5 0.00 0.51 0.51 64 1003.7
20260509180933 18 210 3.2 3.2 0.00 0.51 0.51 67 1003.6
20260509180428 18 245 8.0 12.9 0.00 0.51 0.51 65 1003.7
20260509175925 18 230 14.5 25.7 0.00 0.51 0.51 64 1003.7
20260509175421 18 216 9.7 12.9 0.00 0.51 0.51 64 1003.6
20260509174917 17 260 8.0 12.9 0.00 0.51 0.51 65 1003.7
20260509174414 17 205 4.8 8.0 0.00 0.51 0.51 66 1003.6
20260509173910 17 249 11.3 17.7 0.00 0.51 0.51 65 1004.0
20260509173409 17 202 11.3 12.9 0.00 0.51 0.51 65 1004.0
20260509172906 17 236 14.5 20.9 0.00 0.51 0.51 65 1004.3
20260509172403 17 250 6.4 9.7 0.00 0.51 0.51 66 1004.0
20260509171859 17 220 17.7 22.5 0.00 0.51 0.51 66 1004.0
20260509171355 17 235 8.0 11.3 0.00 0.51 0.51 68 1003.9
20260509170851 17 221 4.8 4.8 0.00 0.51 0.51 68 1003.9
20260509170347 17 248 6.4 9.7 0.00 0.51 0.51 68 1004.0
20260509165842 16 182 8.0 8.0 0.00 0.51 0.51 68 1004.1
20260509165336 16 218 9.7 12.9 0.00 0.51 0.51 68 1004.0
20260509164833 16 234 11.3 12.9 0.00 0.51 0.51 69 1003.9
20260509164329 16 241 4.8 9.7 0.00 0.51 0.51 71 1003.7
20260509163826 16 220 9.7 11.3 0.00 0.51 0.51 70 1003.8
20260509163322 16 244 6.4 11.3 0.00 0.51 0.51 67 1004.0
20260509162822 16 201 11.3 12.9 0.00 0.51 0.51 69 1003.8
20260509162314 16 237 6.4 9.7 0.00 0.51 0.51 71 1004.2
20260509161811 16 226 4.8 4.8 0.00 0.51 0.51 71 1004.4
20260509161307 16 225 6.4 8.0 0.00 0.51 0.51 71 1004.3
20260509160802 15 242 4.8 8.0 0.00 0.51 0.51 73 1004.5
20260509160259 15 259 6.4 8.0 0.00 0.51 0.51 74 1004.3
20260509155754 16 243 3.2 4.8 0.00 0.51 0.51 73 1004.5
20260509155251 16 239 4.8 4.8 0.00 0.51 0.51 71 1004.3
20260509154747 16 210 4.8 4.8 0.00 0.51 0.51 71 1004.4
20260509154244 15 222 3.2 3.2 0.00 0.51 0.51 74 1004.7
20260509153741 16 259 6.4 8.0 0.00 0.51 0.51 73 1004.4
20260509153237 15 273 3.2 3.2 0.00 0.51 0.51 76 1004.6
20260509152734 14 250 4.8 4.8 0.00 0.51 0.51 78 1004.5
20260509152230 15 233 4.8 4.8 0.00 0.51 0.51 80 1004.3
20260509151727 15 226 4.8 4.8 0.00 0.51 0.51 81 1004.4
20260509151224 15 236 3.2 3.2 0.00 0.51 0.51 82 1004.4
20260509150722 15 258 8.0 11.3 0.00 0.51 0.51 83 1004.5
20260509150220 15 282 4.8 4.8 0.00 0.51 0.51 82 1004.3
20260509145717 15 237 11.3 14.5 0.00 0.51 0.51 82 1004.4
20260509145211 14 237 8.0 9.7 0.00 0.51 0.51 84 1004.3
20260509144708 15 239 4.8 8.0 0.00 0.51 0.51 85 1004.2
20260509144205 13 262 1.6 3.2 0.00 0.51 0.51 88 1004.4
20260509143702 13 196 1.6 3.2 0.00 0.51 0.51 90 1004.4
20260509143200 13 207 1.6 1.6 0.00 0.51 0.51 90 1004.3
20260509142655 13 253 3.2 3.2 0.00 0.51 0.51 89 1004.5
20260509142152 13 288 6.4 9.7 0.00 0.51 0.51 90 1004.3
20260509141648 13 243 8.0 9.7 0.00 0.51 0.51 90 1004.5
20260509141144 13 228 3.2 3.2 0.00 0.51 0.51 91 1004.1
20260509140641 12 216 1.6 1.6 0.00 0.51 0.51 93 1004.5
20260509140139 12 219 4.8 4.8 0.00 0.51 0.51 93 1004.6
20260509135636 12 220 1.6 3.2 0.00 0.51 0.51 94 1004.7
20260509135134 12 241 6.4 8.0 0.00 0.51 0.51 94 1004.4
20260509134630 12 224 3.2 3.2 0.00 0.51 0.51 94 1004.6
20260509134128 12 216 3.2 3.2 0.00 0.51 0.51 95 1004.4
20260509133625 12 236 4.8 4.8 0.00 0.51 0.51 95 1004.7
20260509133122 12 229 4.8 4.8 0.00 0.51 0.51 95 1004.6
20260509132620 12 219 4.8 4.8 0.00 0.51 0.51 95 1004.6
20260509132119 12 234 1.6 3.2 0.00 0.51 0.51 96 1004.8
20260509131614 12 231 3.2 3.2 0.00 0.51 0.51 96 1004.6
20260509131112 12 196 3.2 3.2 0.00 0.51 0.51 97 1004.5
20260509130607 11 200 3.2 3.2 0.00 0.51 0.51 98 1004.5
20260509130104 11 187 1.6 1.6 0.00 0.51 0.51 98 1004.6
20260509125600 11 208 1.6 3.2 0.00 0.51 0.51 98 1004.6
20260509125057 11 192 1.6 3.2 0.00 0.51 0.51 99 1004.5
20260509124553 11 193 3.2 4.8 0.00 0.51 0.51 99 1004.5
20260509124051 11 207 3.2 3.2 0.00 0.51 0.51 99 1004.8
20260509123549 11 210 6.4 8.0 0.00 0.51 0.51 99 1004.9
20260509123045 11 192 3.2 4.8 0.00 0.51 0.51 99 1004.7
20260509122541 11 184 3.2 3.2 0.00 0.51 0.51 99 1004.9
20260509122038 11 237 4.8 4.8 0.00 0.51 0.51 99 1005.0
20260509121535 11 206 3.2 3.2 0.00 0.51 0.51 99 1005.0
20260509121033 11 226 6.4 9.7 0.00 0.51 0.51 99 1005.0
20260509120531 11 195 4.8 4.8 0.00 0.51 0.51 99 1004.9
20260509120029 11 213 3.2 3.2 0.00 0.51 0.51 99 1004.9
20260509115525 11 208 3.2 3.2 0.00 0.51 0.51 99 1004.9
20260509115023 10 197 3.2 3.2 0.00 0.51 0.51 99 1005.0
20260509114521 10 178 3.2 3.2 0.00 0.51 0.51 99 1005.1
20260509114020 10 204 3.2 3.2 0.00 0.51 0.51 99 1005.0
20260509113518 10 195 1.6 1.6 0.00 0.51 0.51 99 1004.8
20260509113015 10 206 1.6 3.2 0.00 0.51 0.51 99 1004.8
20260509112511 10 202 1.6 3.2 0.00 0.51 0.51 99 1004.8
20260509112008 10 200 1.6 1.6 0.00 0.51 0.51 99 1004.7
20260509111506 10 184 4.8 4.8 0.00 0.51 0.51 99 1004.9
20260509111003 10 193 0.0 0.0 0.00 0.51 0.51 99 1004.6
20260509110459 10 186 1.6 1.6 0.00 0.51 0.51 99 1004.6
20260509105956 10 195 1.6 1.6 0.00 0.51 0.51 99 1004.8
20260509105455 10 196 3.2 4.8 0.00 0.51 0.51 99 1004.7
20260509104952 10 188 1.6 3.2 0.00 0.51 0.51 99 1004.6
20260509104448 10 192 3.2 3.2 0.00 0.51 0.51 99 1004.5
20260509103946 10 196 0.0 0.0 0.00 0.51 0.51 99 1004.6
20260509103443 10 186 0.0 0.0 0.00 0.51 0.51 99 1004.6
20260509102941 10 188 0.0 1.6 0.00 0.51 0.51 99 1004.3
20260509102438 10 189 0.0 0.0 0.00 0.51 0.51 99 1004.3
20260509101934 10 202 1.6 1.6 0.00 0.51 0.51 99 1004.5
20260509101431 10 191 3.2 3.2 0.00 0.51 0.51 99 1004.5
20260509100928 10 187 3.2 3.2 0.00 0.51 0.51 99 1004.7
20260509100425 10 199 1.6 1.6 0.00 0.51 0.51 99 1004.5
20260509095922 10 154 4.8 4.8 0.00 0.51 0.51 99 1004.4
20260509095419 10 213 1.6 3.2 0.00 0.51 0.51 99 1004.7
20260509094916 10 221 4.8 8.0 0.00 0.51 0.51 99 1004.5
20260509094413 10 192 3.2 3.2 0.00 0.51 0.51 99 1004.6
20260509093911 10 183 3.2 3.2 0.00 0.51 0.51 99 1004.6
20260509093408 10 201 1.6 1.6 0.00 0.51 0.51 99 1004.9
20260509092906 10 190 0.0 1.6 0.00 0.51 0.51 99 1004.7
20260509092403 10 196 4.8 4.8 0.00 0.51 0.51 99 1004.7
20260509091902 10 201 4.8 8.0 0.00 0.51 0.51 99 1004.8
20260509091358 10 203 3.2 3.2 0.00 0.51 0.51 99 1004.7
20260509090855 10 195 0.0 0.0 0.00 0.51 0.51 99 1004.7
20260509090352 10 197 0.0 0.0 0.00 0.51 0.51 99 1005.0
20260509085850 10 190 3.2 3.2 0.00 0.51 0.51 99 1004.9
20260509085347 10 211 0.0 0.0 0.00 0.51 0.51 99 1005.1
20260509084843 10 211 3.2 3.2 0.00 0.51 0.51 99 1005.1
20260509084340 10 185 3.2 4.8 0.00 0.51 0.51 99 1005.0
20260509083838 10 192 3.2 3.2 0.00 0.51 0.51 99 1005.2
20260509083334 10 185 4.8 4.8 0.00 0.51 0.51 99 1005.2
20260509082831 10 200 1.6 1.6 0.00 0.51 0.51 99 1005.2
20260509082328 10 201 0.0 0.0 0.00 0.51 0.51 99 1005.1
20260509081826 10 209 3.2 3.2 0.00 0.51 0.51 99 1005.4
20260509081322 10 214 3.2 3.2 0.00 0.51 0.51 99 1005.4
20260509080820 10 233 4.8 4.8 0.00 0.51 0.51 99 1005.3
20260509080318 10 210 1.6 1.6 0.00 0.51 0.51 99 1005.4
20260509075816 10 195 4.8 4.8 0.00 0.51 0.51 99 1005.6
20260509075313 10 197 0.0 0.0 0.00 0.51 0.51 99 1005.4
20260509074810 10 189 3.2 3.2 0.00 0.51 0.51 99 1005.3
20260509074308 10 199 3.2 3.2 0.00 0.51 0.51 99 1005.4
20260509073803 10 195 1.6 1.6 0.00 0.51 0.51 99 1005.5
20260509073300 10 205 0.0 1.6 0.00 0.51 0.51 99 1005.4
20260509072757 10 203 1.6 1.6 0.00 0.51 0.51 99 1005.3
20260509072253 10 183 1.6 1.6 0.00 0.51 0.51 99 1005.3
20260509071750 10 203 3.2 3.2 0.00 0.51 0.51 99 1005.4
20260509071247 10 229 1.6 3.2 0.00 0.51 0.51 99 1005.2
20260509070744 10 198 1.6 1.6 0.00 0.51 0.51 99 1005.3
20260509070240 10 182 1.6 1.6 0.00 0.51 0.51 99 1005.5
20260509065737 10 188 0.0 1.6 0.00 0.51 0.51 99 1005.5
20260509065233 10 208 0.0 0.0 0.13 0.51 0.51 99 1005.7
20260509064730 10 215 3.2 3.2 0.13 0.51 0.51 99 1005.5
20260509064227 10 220 4.8 4.8 0.18 0.48 0.48 99 1005.6
20260509063725 10 203 1.6 1.6 0.18 0.48 0.48 99 1005.7
20260509063221 10 220 1.6 3.2 0.00 0.46 0.46 99 1005.7
20260509062718 10 203 1.6 1.6 0.13 0.46 0.46 99 1005.7
20260509062215 10 192 4.8 4.8 0.13 0.46 0.46 99 1005.8